#timestamp,LO_Frequency,Hit,StdDev 
1636160415.2,286047003.5,N
1636160435.1,286047001.8,N
1636160436.0,286047001.8,N
1636160455.8,286047002.9,N
1636160475.6,286047002.4,N
1636160495.5,286047004.6,N
1636160515.3,286047003.6,N
1636160535.1,286047005.8,N
1636160555.9,286047006.3,N
1636160575.7,286047005.9,N
1636160595.6,286047003.2,N
1636160615.4,286047004.5,N
1636160635.2,286047004.3,N
1636160655.1,286047006.8,N
1636160656.0,286047006.8,N
1636160675.8,286047007.5,N
1636160695.6,286047010.3,N
1636160715.5,286047013.3,N
1636160735.3,286047007.2,N
1636160755.2,286047005.3,N
1636160775.9,286047008.8,N
1636160795.7,286047006.1,N
1636160815.6,286047008.6,N
1636160835.4,286047003.0,N
1636160855.2,286047003.6,N
1636160875.1,286047000.3,N
1636160876.0,286047000.3,N
1636160895.8,286046998.7,N
1636160915.7,286047001.6,N
1636160935.5,286047005.1,N
1636160955.3,286047009.2,N
1636160975.2,286047007.4,N
1636160995.0,286047001.6,N
1636160995.9,286047001.6,N
1636161015.7,286047001.6,N
1636161035.6,286047005.3,N
1636161055.4,286047011.7,Y
1636161075.3,286047002.8,P
1636161095.1,286047000.7,N
1636161115.8,286047004.2,N
1636161135.7,286047003.9,N
1636161155.5,286047004.0,N
1636161175.4,286046996.3,N
1636161195.2,286046996.5,N
1636161215.0,286047006.4,N
1636161215.9,286047006.4,N
1636161235.8,286047005.9,N
1636161255.6,286047002.9,N
1636161275.4,286047003.2,N
1636161295.3,286047005.3,N
1636161315.1,286047003.3,N
1636161335.9,286047007.6,N
1636161355.7,286047006.9,N
1636161375.5,286047009.3,N
1636161395.4,286047013.9,Y
1636161415.2,286047008.9,P
1636161435.0,286047004.9,N
1636161435.9,286047004.9,N
1636161455.8,286047008.6,Y
1636161475.6,286047000.7,P
1636161495.5,286046999.2,N
1636161515.3,286046998.9,N
1636161535.1,286046993.6,N
1636161555.9,286046996.6,N
1636161575.7,286046998.6,N
1636161595.6,286046997.2,N
1636161615.4,286046996.9,N
1636161635.2,286046998.7,N
1636161655.1,286047002.4,N
1636161656.0,286047002.4,N
1636161675.8,286047001.5,N
1636161695.7,286047000.8,N
1636161715.5,286046998.4,N
1636161735.3,286047000.5,N
1636161755.2,286047002.1,N
1636161775.9,286047001.6,N
1636161795.7,286047003.4,N
1636161815.6,286046998.4,N
1636161835.4,286047000.3,N
1636161855.2,286047003.7,N
1636161875.1,286047007.6,N
1636161876.0,286047007.6,N
1636161895.8,286047003.1,N
1636161915.7,286047001.3,N
1636161935.5,286047007.1,N
1636161955.3,286047007.7,N
1636161975.2,286047012.3,Y
1636161995.0,286047008.7,P
1636161995.9,286047008.7,N
1636162015.8,286047009.3,N
1636162035.6,286047013.8,Y
1636162055.4,286047003.5,P
1636162075.3,286047006.9,P
1636162095.1,286047004.5,N
1636162115.9,286047007.4,Y
1636162135.7,286047001.0,P
1636162155.5,286046995.6,N
1636162175.4,286046996.6,N
1636162195.2,286046995.6,N
1636162215.0,286046995.0,N
1636162215.9,286046995.0,N
1636162235.8,286047002.7,N
1636162255.6,286046999.8,N
1636162275.5,286047001.9,N
1636162295.3,286047006.0,N
1636162315.1,286047002.0,N
1636162335.9,286047004.2,N
1636162355.7,286047001.5,N
1636162375.5,286046999.8,N
1636162395.4,286047003.8,N
1636162415.2,286047007.3,N
1636162435.0,286047005.1,N
1636162436.0,286047005.1,N
1636162455.8,286047003.5,N
1636162475.6,286047004.7,N
1636162495.5,286047002.5,N
1636162515.3,286047002.8,N
1636162535.1,286047004.7,N
1636162555.9,286047006.3,N
1636162575.7,286047007.5,N
1636162595.6,286047006.3,N
1636162615.4,286047006.2,N
1636162635.2,286047005.3,N
1636162655.1,286047003.5,N
1636162656.0,286047003.5,N
1636162675.8,286047006.7,N
1636162695.6,286047008.0,N
1636162715.5,286047008.5,N
1636162735.3,286047009.7,N
1636162755.2,286047010.9,Y
1636162775.9,286047010.2,P
1636162795.7,286047007.5,N
1636162815.6,286047003.6,N
1636162835.4,286046999.7,N
1636162855.2,286047001.4,N
1636162875.1,286047004.1,N
1636162876.0,286047004.1,N
1636162895.8,286047005.5,N
1636162915.7,286047002.9,N
1636162935.5,286047002.3,N
1636162955.3,286047002.6,N
1636162975.2,286047004.1,N
1636162995.0,286047007.8,Y
1636162995.9,286047007.8,P
1636163015.8,286047003.9,N
1636163035.6,286047002.6,N
1636163055.4,286046999.7,N
1636163075.3,286047002.0,N
1636163095.1,286047004.4,N
1636163115.8,286047002.0,N
1636163135.7,286047000.5,N
1636163155.5,286046998.2,N
1636163175.4,286047001.3,N
1636163195.2,286047006.5,N
1636163215.0,286047006.1,N
1636163215.9,286047006.1,N
1636163235.8,286047009.0,Y
1636163255.6,286047003.7,P
1636163275.4,286047003.5,P
1636163295.3,286047002.5,P
1636163315.1,286047001.4,Y
1636163335.9,286047001.2,P
1636163355.7,286047001.4,N
1636163375.5,286047005.6,P
1636163395.4,286047008.1,Y
1636163415.2,286047002.0,P
1636163435.0,286046997.9,P
1636163435.9,286046997.9,N
1636163455.8,286046996.8,N
1636163475.6,286047000.0,N
1636163495.5,286046999.0,N
1636163515.3,286046998.8,N
1636163535.1,286047002.4,N
1636163555.9,286047001.1,N
1636163575.7,286047001.6,N
1636163595.5,286047005.9,N
1636163615.4,286047006.6,N
1636163635.2,286047006.3,N
1636163655.1,286047009.9,Y
1636163656.0,286047009.9,P
1636163675.8,286047006.5,N
1636163695.6,286047012.9,P
1636163715.5,286047011.6,N
1636163735.3,286047013.7,Y
1636163755.2,286047006.2,P
1636163775.9,286047008.8,P
1636163795.7,286047005.9,P
1636163815.6,286047001.5,N
1636163835.4,286047005.8,N
1636163855.2,286047003.1,N
1636163875.1,286047006.8,N
1636163876.0,286047006.8,N
1636163895.8,286047011.7,Y
1636163915.7,286047007.5,P
1636163935.5,286047007.2,P
1636163955.3,286047008.2,P
1636163975.2,286047007.7,Y
1636163995.0,286047000.0,P
1636163995.9,286047000.0,N
